Weather History for KIML - December, 2013

Change the Weather History Date:

Friday, December 13, 2013

  Actual Average Record
Temperature  
Mean Temperature 31 °F 28 °F  
Max Temperature 50 °F 41 °F 72 °F (1921)
Min Temperature 12 °F 16 °F -18 °F (1919)
Degree Days  
Heating Degree Days 34 37  
Month to date heating degree days 578 461  
Cooling Degree Days 0 0  
Month to date cooling degree days 0 0  
Year to date cooling degree days 1166 963  
Moisture  
Dew Point 16 °F    
Average Humidity 55    
Maximum Humidity 84    
Minimum Humidity 26    
Precipitation  
Precipitation 0.00 in 0.01 in 0.39 in (1984)
Snow  
Snow 0.00 in - - ()
Snow Depth 0.00 in    
Sea Level Pressure  
Sea Level Pressure 29.98 in    
Wind  
Wind Speed 11 mph (NNW)    
Max Wind Speed 22 mph    
Max Gust Speed 26 mph    
Visibility 10 miles    
Events      
T = Trace of Precipitation, MM = Missing Value Source: NWS Daily Summary

Daily Weather History Graph

Daily Weather History Graph

Search for Another Location

Airport or City:

Trip Planner

Search our weather history database for the weather conditions in past years. The results will help you decide how hot, cold, wet, or windy it might be!

Date:

Astronomy

Dec. 13, 2013 Rise Set
Actual Time 7:01 AM MST 4:20 PM MST
Civil Twilight 6:30 AM MST 4:50 PM MST
Nautical Twilight 5:56 AM MST 5:25 PM MST
Astronomical Twilight 5:23 AM MST 5:58 PM MST
Moon 2:04 PM MST (12/13) 3:25 AM MST (12/13)
Length of Visible Light 10h 20m
Length of Day
9h 18m
Waxing Gibbous, 88% of the Moon is Illuminated
Dec 13
Waxing Gibbous
Dec 17
Full
Dec 25
Last Quarter
Jan 1
New
Jan 7
First Quarter

Hourly Weather History & Observations

Time (MST) Temp. Windchill Dew Point Humidity Pressure Visibility Wind Dir Wind Speed Gust Speed Precip Events Conditions
12:53 AM 19.9 °F 10.1 °F 14.0 °F 78% 29.96 in 10.0 mi NW 8.1 mph - N/A   Clear
1:53 AM 17.1 °F 10.0 °F 12.0 °F 81% 29.94 in 10.0 mi WNW 4.6 mph - N/A   Clear
2:53 AM 18.0 °F - 10.9 °F 74% 29.92 in 10.0 mi Calm Calm - N/A   Clear
3:53 AM 12.9 °F - 8.1 °F 81% 29.93 in 10.0 mi Calm Calm - N/A   Clear
4:53 AM 15.1 °F 7.7 °F 10.0 °F 80% 29.94 in 10.0 mi West 4.6 mph - N/A   Clear
5:53 AM 15.1 °F 4.2 °F 9.0 °F 77% 29.96 in 10.0 mi NNW 8.1 mph - N/A   Clear
6:53 AM 19.0 °F 9.0 °F 12.0 °F 74% 29.94 in 10.0 mi NW 8.1 mph - N/A   Clear
7:53 AM 21.9 °F 13.4 °F 14.0 °F 72% 29.94 in 10.0 mi NW 6.9 mph - N/A   Clear
8:53 AM 30.0 °F 24.1 °F 19.0 °F 64% 29.92 in 10.0 mi WNW 5.8 mph - N/A   Clear
9:53 AM 36.0 °F 31.1 °F 21.9 °F 57% 29.90 in 10.0 mi NNW 5.8 mph - N/A   Clear
10:53 AM 45.0 °F 38.5 °F 19.9 °F 37% 29.87 in 10.0 mi North 13.8 mph - N/A   Clear
11:53 AM 46.9 °F - 18.0 °F 32% 29.85 in 10.0 mi North 18.4 mph 24.2 mph N/A   Clear
12:53 PM 46.9 °F - 18.0 °F 32% 29.85 in 10.0 mi NNW 12.7 mph - N/A   Clear
1:53 PM 48.0 °F - 16.0 °F 28% 29.87 in 10.0 mi NNW 20.7 mph - N/A   Clear
2:53 PM 42.1 °F 33.6 °F 19.0 °F 40% 29.92 in 10.0 mi North 18.4 mph - N/A   Clear
3:53 PM 37.9 °F 28.9 °F 19.0 °F 47% 29.98 in 10.0 mi North 16.1 mph - N/A   Clear
4:53 PM 35.1 °F 24.8 °F 19.0 °F 52% 30.02 in 10.0 mi North 17.3 mph 24.2 mph N/A   Clear
5:53 PM 30.9 °F 20.7 °F 19.9 °F 64% 30.06 in 10.0 mi North 13.8 mph - N/A   Clear
6:53 PM 28.9 °F 18.2 °F 19.0 °F 67% 30.09 in 10.0 mi North 13.8 mph - N/A   Clear
7:53 PM 27.0 °F 15.6 °F 19.0 °F 72% 30.13 in 10.0 mi North 13.8 mph - N/A   Mostly Cloudy
8:53 PM 27.0 °F 15.6 °F 19.0 °F 72% 30.13 in 10.0 mi North 13.8 mph - N/A   Scattered Clouds
9:53 PM 26.1 °F 18.4 °F 19.0 °F 75% 30.14 in 10.0 mi North 6.9 mph - N/A   Clear
10:53 PM 26.1 °F 15.0 °F 19.0 °F 75% 30.15 in 10.0 mi NNW 12.7 mph - N/A   Partly Cloudy
11:53 PM 27.0 °F 15.2 °F 19.0 °F 72% 30.16 in 10.0 mi NNW 15.0 mph - N/A   Mostly Cloudy